Regional Weather Roundup
Issued by NWS Cleveland, OH

Home | Current Version | Previous Version | Graphics & Text | Print | Product List | Glossary On
Versions: 1 2 3 4 5 6 7 8 9 10 11 12 13 14 15 16 17 18 19 20 21 22 23 24 25 26 27 28 29 30 31 32 33 34 35 36 37 38 39 40 41 42 43 44 45 46 47 48 49 50
000
ASUS41 KCLE 011610
RWRCLE
OHIO REGIONAL WEATHER ROUNDUP
NATIONAL WEATHER SERVICE CLEVELAND, OH
1200 PM EDT WED JUL 01 2015

NOTE: "FAIR" INDICATES FEW OR NO CLOUDS BELOW 12,000 FEET WITH NO
SIGNIFICANT WEATHER AND/OR OBSTRUCTIONS TO VISIBILITY.

OHZ001>008-015>018-024>027-034-035-043-044-011700-
   NORTHWEST OHIO

CITY           SKY/WX    TMP DP  RH WIND       PRES   REMARKS
DEFIANCE       MOSUNNY   67  56  67 W7        29.94R
FINDLAY        CLOUDY    66  57  72 W10       29.93R
TOLEDO EXPRESS CLOUDY    67  58  72 W10       29.91R
TOLEDO EXEC    CLOUDY    70  58  65 W10       29.91R
LIMA           SUNNY     68  58  70 NW8       29.95R
$$

OHZ009>014-019>023-028>033-038-089-011700-
   NORTHEAST OHIO

CITY           SKY/WX    TMP DP  RH WIND       PRES   REMARKS
CLE-HOPKINS    CLOUDY    67  61  81 NW5       29.92R
CLE-LAKEFRONT  CLOUDY    66  59  78 CALM      29.90R
CUY CO. ARPT   CLOUDY    66  59  77 NW7       29.91R
LORAIN-ELYRIA  PTSUNNY   70  61  73 NW9       29.91R
ASHTABULA      CLOUDY    66  59  78 W12       29.91R
AKRON-CANTON   PTSUNNY   70  60  70 W8        29.92R
WOOSTER        CLOUDY    66  59  78 W7        29.93R
MANSFIELD      CLOUDY    65  60  84 W6        29.94R
YOUNGSTOWN     CLOUDY    68  60  75 NW12      29.90R
$$

OHZ042-051>053-060>062-070>072-077>081-011700-
  SOUTHWEST OHIO

CITY           SKY/WX    TMP DP  RH WIND       PRES   REMARKS
CINC-COVINGTON MOSUNNY   76  62  62 CALM      29.96R
CINC-LUNKEN    SUNNY     74  63  68 VRB3      29.96R
HAMILTON       MOSUNNY   76  62  62 CALM      29.97R
DAYTON         MOSUNNY   74  59  59 VRB6      29.96S
WRIGHT-PAT AFB SUNNY     73  58  59 VRB2      29.95
DAYTON GENERAL SUNNY     74  58  57 VRB6      29.95R
WILMINGTON     SUNNY     73  58  59 VRB5      29.95S
$$

OHZ036-037-039>041-045>050-054>059-063>069-073>076-082>088-011700-
  CENTRAL AND SOUTHEAST OHIO

CITY           SKY/WX    TMP DP  RH WIND       PRES   REMARKS
COLUMBUS       MOSUNNY   72  60  66 W6        29.93S
OSU AIRPORT    MOSUNNY   72  60  66 W8        29.94S
BOLTON FIELD   SUNNY     72  61  68 W8        29.96R
RICKENBACK AFB SUNNY     73  58  59 NW7       29.94S
NEWARK         PTSUNNY   76  61  59 W9        29.94R
MARION         PTSUNNY   67  59  75 NW6       29.95R
LANCASTER      MOSUNNY   74  61  63 VRB6      29.94S
ZANESVILLE     NOT AVBL
NEW PHILLY     CLOUDY    67  60  78 SW6       29.93S
$$



USA.gov is the U.S. government's official web portal to all federal, state and local government web resources and services.